Eastsound, WA
on Monday, December 31, 2012

Monday
Previous Day Next Day
Daily Summary
 ActualAverage (KBLI)Record (KBLI)
Temperature
Mean Temperature °F 38°F  
Max Temperature 39°F 44°F 60°F (1963)
Min Temperature 32°F 32°F 9°F (1951)
Degree Days
Heating Degree Days 30 27  
Month to date heating degree days 827  
Cooling Degree Days 0 0  
Month to date cooling degree days 0  
Year to date cooling degree days 42  
Moisture
Dew Point 34°F   
Average Humidity 93    
Maximum Humidity 100    
Minimum Humidity 87    
Precipitation
Precipitation 0.00 in 0.12 in 1.55 in (1953)
Month to date precipitation 4.22  
Year to date precipitation 35.83  
Wind
Wind Speed 1 mph   
Max Wind Speed 10 mph   
Max Gust Speed mph   
Visibility 8 miles   
Events Rain   

Key: T is trace of precipitation, MM is missing value
Source: NWS Daily Summary
Time(PST)TemperatureDew PointHumidity Pressure Visibility Wind DirectionWind SpeedGust SpeedPrecipitationEvents Conditions
12:15 AM 32.0°F 32.0°F 100% 30.28 in 6.0 miles Calm Calm - N/A   Clear
12:35 AM 32.0°F 32.0°F 100% 30.28 in 5.0 miles Calm Calm - N/A   Clear
12:55 AM 32.0°F 32.0°F 100% 30.28 in 6.0 miles Calm Calm - N/A   Clear
1:15 AM 33.8°F 33.8°F 100% 30.28 in 5.0 miles Calm Calm - N/A   Clear
1:35 AM 32.0°F 32.0°F 100% 30.28 in 4.0 miles Calm Calm - N/A   Clear
1:55 AM 32.0°F 32.0°F 100% 30.28 in 4.0 miles Calm Calm - N/A   Clear
2:15 AM 33.8°F 33.8°F 100% 30.28 in 5.0 miles Calm Calm - N/A   Clear
2:35 AM 32.0°F 32.0°F 100% 30.28 in 4.0 miles Calm Calm - N/A   Scattered Clouds
3:15 AM 32.0°F 32.0°F 100% 30.28 in 5.0 miles North - - N/A   Clear
3:55 AM 32.0°F 32.0°F 100% 30.27 in 8.0 miles Calm Calm - N/A   Clear
4:15 AM 33.8°F 33.8°F 100% 30.27 in 7.0 miles Calm Calm - N/A   Clear
4:55 AM 32.0°F 32.0°F 100% 30.26 in 8.0 miles Calm Calm - N/A   Clear
5:15 AM 33.8°F 33.8°F 100% 30.25 in 8.0 miles Calm Calm - N/A   Clear
5:35 AM 32.0°F 32.0°F 100% 30.25 in 5.0 miles Calm Calm - N/A   Clear
6:15 AM 35.6°F 32.0°F 87% 30.25 in 10.0 miles North - - N/A   Mostly Cloudy
6:35 AM 33.8°F 32.0°F 93% 30.26 in 10.0 miles Calm Calm - N/A   Mostly Cloudy
6:55 AM 35.6°F 33.8°F 93% 30.26 in 10.0 miles Calm Calm - N/A   Mostly Cloudy
7:15 AM 33.8°F 33.8°F 100% 30.26 in 10.0 miles Calm Calm - N/A   Overcast
7:35 AM 33.8°F 33.8°F 100% 30.26 in 10.0 miles Calm Calm - N/A   Overcast
7:55 AM 35.6°F 33.8°F 93% 30.27 in 10.0 miles Calm Calm - N/A   Overcast
8:15 AM 35.6°F 33.8°F 93% 30.27 in 10.0 miles Calm Calm - N/A   Mostly Cloudy
8:35 AM 35.6°F 33.8°F 93% 30.28 in 8.0 miles Calm Calm - N/A   Scattered Clouds
8:55 AM 35.6°F 33.8°F 93% 30.28 in 10.0 miles Calm Calm - N/A   Scattered Clouds
9:15 AM 35.6°F 32.0°F 87% 30.29 in 10.0 miles Calm Calm - N/A   Mostly Cloudy
9:35 AM 35.6°F 32.0°F 87% 30.30 in 10.0 miles Calm Calm - N/A   Mostly Cloudy
9:55 AM 35.6°F 32.0°F 87% 30.30 in 10.0 miles Calm Calm - N/A   Mostly Cloudy
10:15 AM 35.6°F 33.8°F 93% 30.32 in 10.0 miles Calm Calm - N/A Rain Light Rain
10:55 AM 35.6°F 32.0°F 87% 30.33 in 5.0 miles Calm Calm - N/A Rain Light Rain
11:15 AM 35.6°F 32.0°F 87% 30.34 in 4.0 miles Calm Calm - N/A Rain Rain
11:35 AM 35.6°F 32.0°F 87% 30.33 in 7.0 miles Calm Calm - N/A Rain Light Rain
11:55 AM 35.6°F 33.8°F 93% 30.33 in 7.0 miles NNE 4.6 mph - N/A Rain Light Rain
12:15 PM 35.6°F 33.8°F 93% 30.33 in 7.0 miles NNE 5.8 mph - N/A Rain Light Rain
12:35 PM 35.6°F 33.8°F 93% 30.33 in 5.0 miles NE 4.6 mph - N/A Rain Light Rain
12:55 PM 35.6°F 33.8°F 93% 30.33 in 8.0 miles NE 4.6 mph - N/A Rain Light Rain
1:15 PM 35.6°F 33.8°F 93% 30.32 in 10.0 miles ENE 5.8 mph - N/A   Overcast
1:35 PM 35.6°F 33.8°F 93% 30.32 in 10.0 miles NE 4.6 mph - N/A   Mostly Cloudy
1:55 PM 35.6°F 33.8°F 93% 30.32 in 10.0 miles NE 4.6 mph - N/A   Overcast
2:15 PM 37.4°F 35.6°F 93% 30.33 in 10.0 miles Calm Calm - N/A   Overcast
2:35 PM 37.4°F 35.6°F 93% 30.33 in 10.0 miles NNE 3.5 mph - N/A   Overcast
3:15 PM 37.4°F 35.6°F 93% 30.34 in 10.0 miles NNE 3.5 mph - N/A   Overcast
3:35 PM 37.4°F 35.6°F 93% 30.35 in 10.0 miles NNE 3.5 mph - N/A   Overcast
3:55 PM 37.4°F 35.6°F 93% 30.35 in 10.0 miles North 5.8 mph - N/A   Overcast
4:15 PM 37.4°F 35.6°F 93% 30.36 in 10.0 miles North 5.8 mph - N/A   Overcast
4:35 PM 37.4°F 33.8°F 87% 30.36 in 10.0 miles NNE 3.5 mph - N/A   Overcast
4:55 PM 37.4°F 35.6°F 93% 30.36 in 10.0 miles North 3.5 mph - N/A   Overcast
5:15 PM 37.4°F 33.8°F 87% 30.36 in 10.0 miles NNE 4.6 mph - N/A   Overcast
5:35 PM 37.4°F 33.8°F 87% 30.37 in 10.0 miles North 3.5 mph - N/A   Overcast
5:55 PM 39.2°F 35.6°F 87% 30.36 in 10.0 miles North 6.9 mph - N/A   Overcast
6:15 PM 39.2°F 35.6°F 87% 30.37 in 10.0 miles North 10.4 mph - N/A   Overcast
6:35 PM 39.2°F 35.6°F 87% 30.38 in 10.0 miles NNW 6.9 mph - N/A   Overcast
6:55 PM 37.4°F 35.6°F 93% 30.38 in 10.0 miles North 3.5 mph - N/A   Mostly Cloudy
7:15 PM 37.4°F 35.6°F 93% 30.39 in 10.0 miles North 4.6 mph - N/A   Mostly Cloudy
7:35 PM 39.2°F 35.6°F 87% 30.39 in 10.0 miles NE 3.5 mph - N/A   Mostly Cloudy
7:55 PM 37.4°F 35.6°F 93% 30.39 in 5.0 miles NNE 3.5 mph - N/A   Mostly Cloudy
8:15 PM 39.2°F 35.6°F 87% 30.40 in 10.0 miles North 6.9 mph - N/A   Overcast
8:35 PM 39.2°F 35.6°F 87% 30.40 in 10.0 miles NNE 4.6 mph - N/A   Overcast
8:55 PM 37.4°F 33.8°F 87% 30.40 in 10.0 miles Calm Calm - N/A   Mostly Cloudy
9:15 PM 37.4°F 35.6°F 93% 30.40 in 9.0 miles Calm Calm - N/A   Mostly Cloudy
9:35 PM 35.6°F 33.8°F 93% 30.41 in 9.0 miles Calm Calm - N/A   Mostly Cloudy
9:55 PM 37.4°F 35.6°F 93% 30.42 in 10.0 miles Calm Calm - N/A   Overcast
10:15 PM 37.4°F 35.6°F 93% 30.42 in 10.0 miles Calm Calm - N/A   Overcast
10:35 PM 37.4°F 35.6°F 93% 30.43 in 10.0 miles Calm Calm - N/A   Overcast
10:55 PM 37.4°F 35.6°F 93% 30.44 in 10.0 miles Calm Calm - N/A   Overcast
11:15 PM 37.4°F 35.6°F 93% 30.44 in 10.0 miles Calm Calm - N/A   Overcast
11:35 PM 37.4°F 35.6°F 93% 30.44 in 8.0 miles Calm Calm - N/A   Overcast
11:55 PM 37.4°F 37.4°F 100% 30.45 in 7.0 miles Calm Calm - N/A   Overcast
Moon Phase
Dec. 31 Jan. 04 Jan. 11 Jan. 18 Jan. 26
Sunrise:08:04 AM (PST) Moon Rise:08:21 PM (PST)12/31
Sunset:04:25 PM (PST) Moon Set:09:31 AM (PST)12/31

Copyright © 2014 The Weather Underground, Inc.